Time,TemperatureF,DewpointF,PressureIn,WindDirection,WindDirectionDegrees,WindSpeedMPH,WindSpeedGustMPH,Humidity,HourlyPrecipIn,Conditions,Clouds,dailyrainin,SoftwareType,DateUTC
2017-07-21 00:05:00,80.1,74.0,30.01,SSW,203,0.0,-999.0,81,0.00,,,0.00,,2017-07-21 04:05:00,
2017-07-21 00:10:00,80.1,74.0,30.00,SSW,203,0.0,-999.0,83,0.00,,,0.00,,2017-07-21 04:10:00,
2017-07-21 00:16:00,79.9,74.0,30.01,South,180,0.0,-999.0,83,0.00,,,0.00,,2017-07-21 04:16:00,
2017-07-21 00:21:00,79.6,74.0,30.00,ENE,68,0.0,-999.0,83,0.00,,,0.00,,2017-07-21 04:21:00,
2017-07-21 00:27:00,79.6,74.0,30.01,North,0,0.0,-999.0,83,0.00,,,0.00,,2017-07-21 04:27:00,
2017-07-21 00:33:00,79.6,74.0,30.01,SSE,158,0.0,-999.0,85,0.00,,,0.00,,2017-07-21 04:33:00,
2017-07-21 00:38:00,79.6,74.0,30.01,SW,225,0.0,-999.0,85,0.00,,,0.00,,2017-07-21 04:38:00,
2017-07-21 00:44:00,79.6,74.0,30.01,SSW,203,0.0,-999.0,85,0.00,,,0.00,,2017-07-21 04:44:00,
2017-07-21 00:49:00,79.6,74.0,30.00,South,180,0.0,-999.0,85,0.00,,,0.00,,2017-07-21 04:49:00,
2017-07-21 00:55:00,79.6,74.0,30.00,West,270,1.0,-999.0,85,0.00,,,0.00,,2017-07-21 04:55:00,
2017-07-21 01:00:00,79.6,74.0,30.00,NW,315,0.0,-999.0,85,0.00,,,0.00,,2017-07-21 05:00:00,
2017-07-21 01:06:00,79.9,74.0,30.01,South,180,0.0,-999.0,85,0.00,,,0.00,,2017-07-21 05:06:00,
2017-07-21 01:11:00,79.9,74.0,30.00,SSW,203,0.0,-999.0,85,0.00,,,0.00,,2017-07-21 05:11:00,
2017-07-21 01:17:00,79.9,74.0,30.00,SSW,203,0.0,-999.0,85,0.00,,,0.00,,2017-07-21 05:17:00,
2017-07-21 01:22:00,79.9,74.0,30.00,South,180,0.0,-999.0,83,0.00,,,0.00,,2017-07-21 05:22:00,
2017-07-21 01:28:00,79.9,74.0,30.00,SW,225,0.0,-999.0,83,0.00,,,0.00,,2017-07-21 05:28:00,
2017-07-21 01:34:00,79.9,74.0,30.00,SE,135,0.0,-999.0,83,0.00,,,0.00,,2017-07-21 05:34:00,
2017-07-21 01:39:00,79.6,74.0,30.00,SE,135,0.0,-999.0,83,0.00,,,0.00,,2017-07-21 05:39:00,
2017-07-21 01:45:00,79.6,74.0,30.00,SSW,203,0.0,-999.0,83,0.00,,,0.00,,2017-07-21 05:45:00,
2017-07-21 01:50:00,79.4,74.0,30.00,SSW,203,0.0,-999.0,83,0.00,,,0.00,,2017-07-21 05:50:00,
2017-07-21 01:56:00,79.4,74.0,29.99,South,180,0.0,-999.0,83,0.00,,,0.00,,2017-07-21 05:56:00,
2017-07-21 02:01:00,79.3,74.0,30.00,South,180,0.0,-999.0,85,0.00,,,0.00,,2017-07-21 06:01:00,
2017-07-21 02:07:00,79.0,74.0,29.99,ENE,68,0.0,-999.0,85,0.00,,,0.00,,2017-07-21 06:07:00,
2017-07-21 02:12:00,79.0,74.0,29.99,South,180,0.0,-999.0,86,0.00,,,0.00,,2017-07-21 06:12:00,
2017-07-21 02:18:00,78.8,74.0,30.00,South,180,0.0,-999.0,86,0.00,,,0.00,,2017-07-21 06:18:00,
2017-07-21 02:24:00,78.5,74.0,29.98,South,180,0.0,-999.0,86,0.00,,,0.00,,2017-07-21 06:24:00,
2017-07-21 02:29:00,78.3,73.0,29.99,South,180,0.0,-999.0,86,0.00,,,0.00,,2017-07-21 06:29:00,
2017-07-21 02:35:00,78.1,73.0,29.99,South,180,0.0,-999.0,86,0.00,,,0.00,,2017-07-21 06:35:00,
2017-07-21 02:40:00,78.1,73.0,29.98,SSW,203,0.0,-999.0,86,0.00,,,0.00,,2017-07-21 06:40:00,
2017-07-21 02:46:00,78.1,73.0,29.98,SSW,203,0.0,-999.0,86,0.00,,,0.00,,2017-07-21 06:46:00,
2017-07-21 02:51:00,77.8,74.0,29.98,South,180,0.0,-999.0,88,0.00,,,0.00,,2017-07-21 06:51:00,
2017-07-21 02:57:00,77.6,73.0,29.98,South,180,0.0,-999.0,88,0.00,,,0.00,,2017-07-21 06:57:00,
2017-07-21 03:02:00,77.5,73.0,29.98,South,180,0.0,-999.0,88,0.00,,,0.00,,2017-07-21 07:02:00,
2017-07-21 03:08:00,77.5,73.0,29.97,South,180,0.0,-999.0,88,0.00,,,0.00,,2017-07-21 07:08:00,
2017-07-21 03:13:00,77.4,73.0,29.97,South,180,0.0,-999.0,88,0.00,,,0.00,,2017-07-21 07:13:00,
2017-07-21 03:19:00,77.1,73.0,29.97,South,180,0.0,-999.0,88,0.00,,,0.00,,2017-07-21 07:19:00,
2017-07-21 03:25:00,77.1,74.0,29.97,South,180,0.0,-999.0,90,0.00,,,0.00,,2017-07-21 07:25:00,
2017-07-21 03:30:00,76.9,73.0,29.97,South,180,0.0,-999.0,90,0.00,,,0.00,,2017-07-21 07:30:00,
2017-07-21 03:36:00,76.8,73.0,29.97,South,180,0.0,-999.0,90,0.00,,,0.00,,2017-07-21 07:36:00,
2017-07-21 03:41:00,76.5,73.0,29.97,South,180,0.0,-999.0,90,0.00,,,0.00,,2017-07-21 07:41:00,
2017-07-21 03:47:00,76.5,73.0,29.97,South,180,0.0,-999.0,90,0.00,,,0.00,,2017-07-21 07:47:00,
2017-07-21 03:52:00,76.4,73.0,29.97,South,180,0.0,-999.0,90,0.00,,,0.00,,2017-07-21 07:52:00,
2017-07-21 03:57:00,76.3,73.0,29.96,South,180,0.0,-999.0,90,0.00,,,0.00,,2017-07-21 07:57:00,
2017-07-21 04:03:00,76.3,73.0,29.96,South,180,0.0,-999.0,90,0.00,,,0.00,,2017-07-21 08:03:00,
2017-07-21 04:08:00,76.0,72.0,29.96,SSW,203,0.0,-999.0,90,0.00,,,0.00,,2017-07-21 08:08:00,
2017-07-21 04:14:00,75.9,73.0,29.96,South,180,0.0,-999.0,91,0.00,,,0.00,,2017-07-21 08:14:00,
2017-07-21 04:19:00,75.9,73.0,29.96,South,180,0.0,-999.0,91,0.00,,,0.00,,2017-07-21 08:19:00,
2017-07-21 04:25:00,75.9,73.0,29.96,SSE,158,0.0,-999.0,91,0.00,,,0.00,,2017-07-21 08:25:00,
2017-07-21 04:31:00,75.6,73.0,29.96,SW,225,0.0,-999.0,91,0.00,,,0.00,,2017-07-21 08:31:00,
2017-07-21 04:36:00,75.6,72.0,29.96,South,180,0.0,-999.0,91,0.00,,,0.00,,2017-07-21 08:36:00,
2017-07-21 04:42:00,75.6,72.0,29.96,South,180,0.0,-999.0,91,0.00,,,0.00,,2017-07-21 08:42:00,
2017-07-21 04:47:00,75.6,72.0,29.96,SSW,203,0.0,-999.0,91,0.00,,,0.00,,2017-07-21 08:47:00,
2017-07-21 04:53:00,75.6,73.0,29.96,South,180,0.0,-999.0,91,0.00,,,0.00,,2017-07-21 08:53:00,
2017-07-21 04:58:00,75.5,73.0,29.96,South,180,0.0,-999.0,91,0.00,,,0.00,,2017-07-21 08:58:00,
2017-07-21 05:04:00,75.5,73.0,29.97,SSW,203,0.0,-999.0,91,0.00,,,0.00,,2017-07-21 09:04:00,
2017-07-21 05:09:00,75.5,73.0,29.97,South,180,0.0,-999.0,93,0.00,,,0.00,,2017-07-21 09:09:00,
2017-07-21 05:15:00,75.5,73.0,29.96,South,180,0.0,-999.0,93,0.00,,,0.00,,2017-07-21 09:15:00,
2017-07-21 05:21:00,75.3,73.0,29.96,South,180,0.0,-999.0,93,0.00,,,0.00,,2017-07-21 09:21:00,
2017-07-21 05:26:00,75.1,73.0,29.97,South,180,0.0,-999.0,93,0.00,,,0.00,,2017-07-21 09:26:00,
2017-07-21 05:32:00,75.1,73.0,29.97,South,180,0.0,-999.0,93,0.00,,,0.00,,2017-07-21 09:32:00,
2017-07-21 05:37:00,75.0,72.0,29.97,South,180,0.0,-999.0,93,0.00,,,0.00,,2017-07-21 09:37:00,
2017-07-21 05:43:00,75.0,72.0,29.97,South,180,0.0,-999.0,93,0.00,,,0.00,,2017-07-21 09:43:00,
2017-07-21 05:44:00,75.0,72.0,29.97,South,180,0.0,-999.0,93,0.00,,,0.00,,2017-07-21 09:44:00,
2017-07-21 05:50:00,74.8,72.0,29.97,SSW,203,0.0,-999.0,93,0.00,,,0.00,,2017-07-21 09:50:00,
2017-07-21 05:55:00,74.8,72.0,29.97,South,180,0.0,-999.0,93,0.00,,,0.00,,2017-07-21 09:55:00,
2017-07-21 06:01:00,74.6,72.0,29.98,South,180,0.0,-999.0,93,0.00,,,0.00,,2017-07-21 10:01:00,
2017-07-21 06:06:00,74.4,72.0,29.97,SSW,203,0.0,-999.0,93,0.00,,,0.00,,2017-07-21 10:06:00,
2017-07-21 06:12:00,74.4,72.0,29.97,South,180,0.0,-999.0,93,0.00,,,0.00,,2017-07-21 10:12:00,
2017-07-21 06:17:00,74.4,72.0,29.97,South,180,0.0,-999.0,93,0.00,,,0.00,,2017-07-21 10:17:00,
2017-07-21 06:23:00,74.4,72.0,29.97,South,180,0.0,-999.0,93,0.00,,,0.00,,2017-07-21 10:23:00,
2017-07-21 06:28:00,74.3,72.0,29.97,South,180,0.0,-999.0,93,0.00,,,0.00,,2017-07-21 10:28:00,
2017-07-21 06:34:00,74.3,72.0,29.98,South,180,0.0,-999.0,93,0.00,,,0.00,,2017-07-21 10:34:00,
2017-07-21 06:39:00,74.3,72.0,29.98,South,180,0.0,-999.0,93,0.00,,,0.00,,2017-07-21 10:39:00,
2017-07-21 06:45:00,74.3,72.0,29.98,South,180,0.0,-999.0,93,0.00,,,0.00,,2017-07-21 10:45:00,
2017-07-21 06:51:00,74.3,72.0,29.98,South,180,0.0,-999.0,93,0.00,,,0.00,,2017-07-21 10:51:00,
2017-07-21 06:56:00,74.3,72.0,29.99,South,180,0.0,-999.0,93,0.00,,,0.00,,2017-07-21 10:56:00,
2017-07-21 07:02:00,74.3,72.0,29.99,South,180,0.0,-999.0,93,0.00,,,0.00,,2017-07-21 11:02:00,
2017-07-21 07:07:00,74.6,72.0,29.99,South,180,0.0,-999.0,93,0.00,,,0.00,,2017-07-21 11:07:00,
2017-07-21 07:13:00,74.6,72.0,30.00,South,180,0.0,-999.0,93,0.00,,,0.00,,2017-07-21 11:13:00,
2017-07-21 07:18:00,74.6,72.0,30.00,SSW,203,0.0,-999.0,93,0.00,,,0.00,,2017-07-21 11:18:00,
2017-07-21 07:24:00,74.8,72.0,30.00,SSW,203,0.0,-999.0,93,0.00,,,0.00,,2017-07-21 11:24:00,
2017-07-21 07:29:00,75.1,73.0,30.01,SW,225,0.0,-999.0,93,0.00,,,0.00,,2017-07-21 11:29:00,
2017-07-21 07:35:00,75.3,73.0,30.00,SSW,203,0.0,-999.0,93,0.00,,,0.00,,2017-07-21 11:35:00,
2017-07-21 07:41:00,75.6,73.0,30.00,South,180,0.0,-999.0,93,0.00,,,0.00,,2017-07-21 11:41:00,
2017-07-21 07:46:00,75.9,73.0,30.01,SSW,203,0.0,-999.0,91,0.00,,,0.00,,2017-07-21 11:46:00,
2017-07-21 07:52:00,76.3,73.0,30.01,South,180,1.0,-999.0,91,0.00,,,0.00,,2017-07-21 11:52:00,
2017-07-21 07:57:00,76.9,73.0,30.01,South,180,0.0,-999.0,90,0.00,,,0.00,,2017-07-21 11:57:00,
2017-07-21 08:03:00,78.1,74.0,30.01,South,180,1.0,-999.0,88,0.00,,,0.00,,2017-07-21 12:03:00,
2017-07-21 08:08:00,79.6,74.0,30.02,SW,225,0.0,-999.0,85,0.00,,,0.00,,2017-07-21 12:08:00,
2017-07-21 08:14:00,80.7,74.0,30.02,SE,135,0.0,-999.0,81,0.00,,,0.00,,2017-07-21 12:14:00,
2017-07-21 08:19:00,81.9,75.0,30.02,ESE,113,0.0,-999.0,80,0.00,,,0.00,,2017-07-21 12:19:00,
2017-07-21 08:25:00,82.8,75.0,30.02,SSE,158,2.0,-999.0,78,0.00,,,0.00,,2017-07-21 12:25:00,
2017-07-21 08:30:00,84.2,75.0,30.02,ESE,113,0.0,-999.0,75,0.00,,,0.00,,2017-07-21 12:30:00,
2017-07-21 08:36:00,84.8,75.0,30.03,South,180,2.0,-999.0,73,0.00,,,0.00,,2017-07-21 12:36:00,
2017-07-21 08:42:00,86.0,74.0,30.02,SSW,203,0.0,-999.0,69,0.00,,,0.00,,2017-07-21 12:42:00,
2017-07-21 08:47:00,86.4,75.0,30.02,SSW,203,1.0,-999.0,69,0.00,,,0.00,,2017-07-21 12:47:00,
2017-07-21 08:53:00,86.4,74.0,30.02,SSE,158,2.0,-999.0,68,0.00,,,0.00,,2017-07-21 12:53:00,
2017-07-21 08:58:00,87.3,75.0,30.02,SSW,203,0.0,-999.0,66,0.00,,,0.00,,2017-07-21 12:58:00,
2017-07-21 09:04:00,86.1,73.0,30.02,SSW,203,0.0,-999.0,66,0.00,,,0.00,,2017-07-21 13:04:00,
2017-07-21 09:09:00,86.1,73.0,30.02,South,180,0.0,-999.0,65,0.00,,,0.00,,2017-07-21 13:09:00,
2017-07-21 09:15:00,86.1,74.0,30.02,ESE,113,0.0,-999.0,69,0.00,,,0.00,,2017-07-21 13:15:00,
2017-07-21 09:20:00,86.4,74.0,30.02,SSW,203,0.0,-999.0,68,0.00,,,0.00,,2017-07-21 13:20:00,
2017-07-21 09:26:00,86.1,73.0,30.02,South,180,0.0,-999.0,66,0.00,,,0.00,,2017-07-21 13:26:00,
2017-07-21 09:32:00,87.3,74.0,30.02,SSW,203,0.0,-999.0,65,0.00,,,0.00,,2017-07-21 13:32:00,
2017-07-21 09:37:00,88.0,73.0,30.02,SSW,203,1.0,-999.0,63,0.00,,,0.00,,2017-07-21 13:37:00,
2017-07-21 09:43:00,88.6,74.0,30.02,West,270,0.0,-999.0,61,0.00,,,0.00,,2017-07-21 13:43:00,
2017-07-21 09:48:00,88.6,74.0,30.02,South,180,0.0,-999.0,63,0.00,,,0.00,,2017-07-21 13:48:00,
2017-07-21 09:54:00,88.0,73.0,30.02,SSE,158,2.0,-999.0,63,0.00,,,0.00,,2017-07-21 13:54:00,
2017-07-21 09:59:00,88.5,74.0,30.02,SSW,203,1.0,-999.0,63,0.00,,,0.00,,2017-07-21 13:59:00,
2017-07-21 10:05:00,88.2,74.0,30.02,SSW,203,1.0,-999.0,63,0.00,,,0.00,,2017-07-21 14:05:00,
2017-07-21 10:10:00,88.2,74.0,30.02,South,180,1.0,-999.0,63,0.00,,,0.00,,2017-07-21 14:10:00,
2017-07-21 10:16:00,88.1,74.0,30.02,SSW,203,0.0,-999.0,63,0.00,,,0.00,,2017-07-21 14:16:00,
2017-07-21 10:21:00,88.1,73.0,30.02,SW,225,0.0,-999.0,61,0.00,,,0.00,,2017-07-21 14:21:00,
2017-07-21 10:27:00,88.2,73.0,30.03,South,180,0.0,-999.0,61,0.00,,,0.00,,2017-07-21 14:27:00,
2017-07-21 10:32:00,88.2,73.0,30.02,SSW,203,0.0,-999.0,61,0.00,,,0.00,,2017-07-21 14:32:00,
2017-07-21 10:38:00,88.6,74.0,30.02,South,180,0.0,-999.0,61,0.00,,,0.00,,2017-07-21 14:38:00,
2017-07-21 10:43:00,88.6,73.0,30.02,West,270,1.0,-999.0,60,0.00,,,0.00,,2017-07-21 14:43:00,
2017-07-21 10:49:00,88.6,74.0,30.02,WSW,248,0.0,-999.0,63,0.00,,,0.00,,2017-07-21 14:49:00,
2017-07-21 10:54:00,88.6,74.0,30.01,WNW,293,1.0,-999.0,63,0.00,,,0.00,,2017-07-21 14:54:00,
2017-07-21 11:00:00,88.6,74.0,30.02,NNW,338,2.0,-999.0,63,0.00,,,0.00,,2017-07-21 15:00:00,
2017-07-21 11:06:00,88.6,74.0,30.02,WNW,293,1.0,-999.0,61,0.00,,,0.00,,2017-07-21 15:06:00,
2017-07-21 11:11:00,88.6,74.0,30.02,ESE,113,2.0,-999.0,63,0.00,,,0.00,,2017-07-21 15:11:00,
2017-07-21 11:17:00,88.6,75.0,30.02,SSW,203,1.0,-999.0,65,0.00,,,0.00,,2017-07-21 15:17:00,
2017-07-21 11:22:00,88.9,72.0,30.02,SW,225,1.0,-999.0,59,0.00,,,0.00,,2017-07-21 15:22:00,
2017-07-21 11:28:00,88.9,73.0,30.02,South,180,0.0,-999.0,60,0.00,,,0.00,,2017-07-21 15:28:00,
2017-07-21 11:33:00,89.2,73.0,30.02,NW,315,1.0,-999.0,61,0.00,,,0.00,,2017-07-21 15:33:00,
2017-07-21 11:39:00,89.4,73.0,30.02,North,0,2.0,-999.0,60,0.00,,,0.00,,2017-07-21 15:39:00,
2017-07-21 11:44:00,89.2,73.0,30.02,NE,45,1.0,-999.0,60,0.00,,,0.00,,2017-07-21 15:44:00,
2017-07-21 11:50:00,89.4,73.0,30.02,ESE,113,0.0,-999.0,60,0.00,,,0.00,,2017-07-21 15:50:00,
2017-07-21 11:56:00,89.8,73.0,30.02,West,270,1.0,-999.0,58,0.00,,,0.00,,2017-07-21 15:56:00,
2017-07-21 12:01:00,90.1,72.0,30.01,NNE,23,2.0,-999.0,56,0.00,,,0.00,,2017-07-21 16:01:00,
2017-07-21 12:07:00,90.5,74.0,30.02,WSW,248,0.0,-999.0,60,0.00,,,0.00,,2017-07-21 16:07:00,
2017-07-21 12:10:00,91.1,75.0,30.02,South,180,1.0,-999.0,60,0.00,,,0.00,,2017-07-21 16:10:00,
2017-07-21 12:15:00,91.8,74.0,30.02,SW,225,0.0,-999.0,56,0.00,,,0.00,,2017-07-21 16:15:00,
2017-07-21 12:21:00,92.3,73.0,30.02,West,270,0.0,-999.0,55,0.00,,,0.00,,2017-07-21 16:21:00,
2017-07-21 12:26:00,93.6,73.0,30.02,West,270,0.0,-999.0,53,0.00,,,0.00,,2017-07-21 16:26:00,
2017-07-21 12:32:00,94.6,73.0,30.01,SSW,203,0.0,-999.0,50,0.00,,,0.00,,2017-07-21 16:32:00,
2017-07-21 12:37:00,96.0,75.0,30.02,South,180,0.0,-999.0,50,0.00,,,0.00,,2017-07-21 16:37:00,
2017-07-21 12:43:00,98.5,74.0,30.01,West,270,0.0,-999.0,46,0.00,,,0.00,,2017-07-21 16:43:00,
2017-07-21 12:49:00,99.6,75.0,30.01,West,270,0.0,-999.0,45,0.00,,,0.00,,2017-07-21 16:49:00,
2017-07-21 12:54:00,100.3,75.0,30.01,NW,315,2.0,-999.0,45,0.00,,,0.00,,2017-07-21 16:54:00,
2017-07-21 13:00:00,100.8,74.0,30.01,NNE,23,0.0,-999.0,44,0.00,,,0.00,,2017-07-21 17:00:00,
2017-07-21 13:05:00,101.3,74.0,30.01,NNE,23,0.0,-999.0,43,0.00,,,0.00,,2017-07-21 17:05:00,
2017-07-21 13:11:00,101.8,75.0,30.00,South,180,1.0,-999.0,43,0.00,,,0.00,,2017-07-21 17:11:00,
2017-07-21 13:16:00,101.6,76.0,30.00,South,180,0.0,-999.0,45,0.00,,,0.00,,2017-07-21 17:16:00,
2017-07-21 13:22:00,103.6,75.0,30.01,West,270,2.0,-999.0,40,0.00,,,0.00,,2017-07-21 17:22:00,
2017-07-21 13:27:00,102.3,74.0,30.00,South,180,1.0,-999.0,41,0.00,,,0.00,,2017-07-21 17:27:00,
2017-07-21 13:33:00,104.6,76.0,30.00,North,0,0.0,-999.0,41,0.00,,,0.00,,2017-07-21 17:33:00,
2017-07-21 13:38:00,105.5,74.0,30.00,WSW,248,0.0,-999.0,37,0.00,,,0.00,,2017-07-21 17:38:00,
2017-07-21 13:44:00,105.3,75.0,30.00,WSW,248,1.0,-999.0,39,0.00,,,0.00,,2017-07-21 17:44:00,
2017-07-21 13:50:00,104.4,73.0,30.00,ENE,68,2.0,-999.0,37,0.00,,,0.00,,2017-07-21 17:50:00,
2017-07-21 13:55:00,106.7,73.0,29.99,WNW,293,1.0,-999.0,35,0.00,,,0.00,,2017-07-21 17:55:00,
2017-07-21 14:01:00,107.5,74.0,29.99,SW,225,2.0,-999.0,35,0.00,,,0.00,,2017-07-21 18:01:00,
2017-07-21 14:06:00,107.5,74.0,29.99,WNW,293,2.0,-999.0,35,0.00,,,0.00,,2017-07-21 18:06:00,
2017-07-21 14:12:00,106.9,73.0,29.99,West,270,0.0,-999.0,35,0.00,,,0.00,,2017-07-21 18:12:00,
2017-07-21 14:17:00,107.4,75.0,29.98,NW,315,2.0,-999.0,37,0.00,,,0.00,,2017-07-21 18:17:00,
2017-07-21 14:23:00,107.5,74.0,29.98,NNE,23,0.0,-999.0,35,0.00,,,0.00,,2017-07-21 18:23:00,
2017-07-21 14:28:00,107.5,75.0,29.98,South,180,2.0,-999.0,37,0.00,,,0.00,,2017-07-21 18:28:00,
2017-07-21 14:33:00,108.2,75.0,29.98,NNE,23,0.0,-999.0,35,0.00,,,0.00,,2017-07-21 18:33:00,
2017-07-21 14:39:00,109.2,75.0,29.98,NW,315,1.0,-999.0,35,0.00,,,0.00,,2017-07-21 18:39:00,
2017-07-21 14:44:00,108.5,74.0,29.98,NNE,23,3.0,-999.0,35,0.00,,,0.00,,2017-07-21 18:44:00,
2017-07-21 14:50:00,107.4,75.0,29.98,NW,315,2.0,-999.0,37,0.00,,,0.00,,2017-07-21 18:50:00,
2017-07-21 14:56:00,106.2,74.0,29.97,NW,315,2.0,-999.0,37,0.00,,,0.00,,2017-07-21 18:56:00,
2017-07-21 15:01:00,104.9,74.0,29.97,West,270,2.0,-999.0,37,0.00,,,0.00,,2017-07-21 19:01:00,
2017-07-21 15:07:00,104.4,73.0,29.96,WSW,248,2.0,-999.0,37,0.00,,,0.00,,2017-07-21 19:07:00,
2017-07-21 15:12:00,105.0,74.0,29.96,NW,315,1.0,-999.0,37,0.00,,,0.00,,2017-07-21 19:12:00,
2017-07-21 15:18:00,107.0,76.0,29.96,NNW,338,3.0,-999.0,39,0.00,,,0.00,,2017-07-21 19:18:00,
2017-07-21 15:23:00,108.0,74.0,29.96,NNW,338,0.0,-999.0,35,0.00,,,0.00,,2017-07-21 19:23:00,
2017-07-21 15:29:00,108.5,74.0,29.95,WNW,293,2.0,-999.0,35,0.00,,,0.00,,2017-07-21 19:29:00,
2017-07-21 15:34:00,108.0,74.0,29.96,SSE,158,0.0,-999.0,35,0.00,,,0.00,,2017-07-21 19:34:00,
2017-07-21 15:40:00,108.5,73.0,29.96,NNE,23,1.0,-999.0,32,0.00,,,0.00,,2017-07-21 19:40:00,
2017-07-21 15:46:00,108.5,75.0,29.95,SE,135,1.0,-999.0,35,0.00,,,0.00,,2017-07-21 19:46:00,
2017-07-21 15:51:00,108.9,72.0,29.95,South,180,0.0,-999.0,31,0.00,,,0.00,,2017-07-21 19:51:00,
2017-07-21 15:57:00,109.2,73.0,29.95,ESE,113,0.0,-999.0,32,0.00,,,0.00,,2017-07-21 19:57:00,
2017-07-21 16:02:00,109.8,75.0,29.95,SSE,158,0.0,-999.0,34,0.00,,,0.00,,2017-07-21 20:02:00,
2017-07-21 16:08:00,110.8,74.0,29.95,North,0,0.0,-999.0,31,0.00,,,0.00,,2017-07-21 20:08:00,
2017-07-21 16:13:00,111.4,74.0,29.95,SSW,203,0.0,-999.0,31,0.00,,,0.00,,2017-07-21 20:13:00,
2017-07-21 16:19:00,108.9,76.0,29.95,SSW,203,0.0,-999.0,35,0.00,,,0.00,,2017-07-21 20:19:00,
2017-07-21 16:24:00,110.1,73.0,29.94,WSW,248,2.0,-999.0,31,0.00,,,0.00,,2017-07-21 20:24:00,
2017-07-21 16:30:00,109.5,73.0,29.94,South,180,0.0,-999.0,31,0.00,,,0.00,,2017-07-21 20:30:00,
2017-07-21 16:35:00,107.5,74.0,29.94,ESE,113,0.0,-999.0,35,0.00,,,0.00,,2017-07-21 20:35:00,
2017-07-21 16:41:00,106.4,74.0,29.94,ENE,68,0.0,-999.0,37,0.00,,,0.00,,2017-07-21 20:41:00,
2017-07-21 16:47:00,109.2,74.0,29.94,South,180,0.0,-999.0,34,0.00,,,0.00,,2017-07-21 20:47:00,
2017-07-21 16:52:00,107.0,74.0,29.94,SW,225,0.0,-999.0,35,0.00,,,0.00,,2017-07-21 20:52:00,
2017-07-21 16:58:00,108.9,73.0,29.94,South,180,0.0,-999.0,32,0.00,,,0.00,,2017-07-21 20:58:00,
2017-07-21 17:03:00,109.8,76.0,29.94,South,180,0.0,-999.0,35,0.00,,,0.00,,2017-07-21 21:03:00,
2017-07-21 17:09:00,109.8,74.0,29.93,WNW,293,0.0,-999.0,32,0.00,,,0.00,,2017-07-21 21:09:00,
2017-07-21 17:14:00,108.0,73.0,29.93,North,0,0.0,-999.0,34,0.00,,,0.00,,2017-07-21 21:14:00,
2017-07-21 17:20:00,105.5,75.0,29.93,West,270,0.0,-999.0,39,0.00,,,0.00,,2017-07-21 21:20:00,
2017-07-21 17:25:00,107.1,73.0,29.93,SSW,203,0.0,-999.0,35,0.00,,,0.00,,2017-07-21 21:25:00,
2017-07-21 17:31:00,109.2,75.0,29.93,SSE,158,0.0,-999.0,35,0.00,,,0.00,,2017-07-21 21:31:00,
2017-07-21 17:37:00,108.0,74.0,29.93,SSE,158,0.0,-999.0,35,0.00,,,0.00,,2017-07-21 21:37:00,
2017-07-21 17:42:00,106.7,74.0,29.92,SE,135,0.0,-999.0,35,0.00,,,0.00,,2017-07-21 21:42:00,
2017-07-21 17:48:00,105.0,75.0,29.92,East,90,0.0,-999.0,40,0.00,,,0.00,,2017-07-21 21:48:00,
2017-07-21 17:53:00,105.5,76.0,29.92,West,270,0.0,-999.0,40,0.00,,,0.00,,2017-07-21 21:53:00,
2017-07-21 17:59:00,105.4,75.0,29.92,South,180,0.0,-999.0,39,0.00,,,0.00,,2017-07-21 21:59:00,
2017-07-21 18:04:00,103.6,75.0,29.91,WNW,293,0.0,-999.0,40,0.00,,,0.00,,2017-07-21 22:04:00,
2017-07-21 18:10:00,105.3,77.0,29.91,SW,225,0.0,-999.0,41,0.00,,,0.00,,2017-07-21 22:10:00,
2017-07-21 18:15:00,105.0,76.0,29.92,SE,135,0.0,-999.0,40,0.00,,,0.00,,2017-07-21 22:15:00,
2017-07-21 18:21:00,104.2,76.0,29.92,South,180,0.0,-999.0,41,0.00,,,0.00,,2017-07-21 22:21:00,
2017-07-21 18:26:00,101.9,75.0,29.91,SSW,203,0.0,-999.0,43,0.00,,,0.00,,2017-07-21 22:26:00,
2017-07-21 18:32:00,100.9,73.0,29.92,South,180,0.0,-999.0,41,0.00,,,0.00,,2017-07-21 22:32:00,
2017-07-21 18:38:00,98.8,75.0,29.92,South,180,0.0,-999.0,46,0.00,,,0.00,,2017-07-21 22:38:00,
2017-07-21 18:43:00,98.4,75.0,29.92,South,180,0.0,-999.0,48,0.00,,,0.00,,2017-07-21 22:43:00,
2017-07-21 18:49:00,95.6,76.0,29.91,South,180,0.0,-999.0,54,0.00,,,0.00,,2017-07-21 22:49:00,
2017-07-21 18:54:00,95.6,75.0,29.91,South,180,0.0,-999.0,53,0.00,,,0.00,,2017-07-21 22:54:00,
2017-07-21 19:00:00,96.0,74.0,29.92,South,180,0.0,-999.0,50,0.00,,,0.00,,2017-07-21 23:00:00,
2017-07-21 19:03:00,95.5,75.0,29.92,South,180,0.0,-999.0,53,0.00,,,0.00,,2017-07-21 23:03:00,
2017-07-21 19:08:00,94.4,76.0,29.92,South,180,0.0,-999.0,55,0.00,,,0.00,,2017-07-21 23:08:00,
2017-07-21 19:14:00,93.9,76.0,29.93,SSW,203,0.0,-999.0,58,0.00,,,0.00,,2017-07-21 23:14:00,
2017-07-21 19:20:00,93.0,76.0,29.92,SSW,203,0.0,-999.0,59,0.00,,,0.00,,2017-07-21 23:20:00,
2017-07-21 19:25:00,92.6,76.0,29.93,SSW,203,0.0,-999.0,60,0.00,,,0.00,,2017-07-21 23:25:00,